| time (UTC) | temp F | wind direction | speed MPH | gust MPH | rain 1hr in | rain 24hr in | rain mn in | humidity % | barometer mb |
| 20260502220049 | 45 | 291 | 7.0 | 20.0 | 0.00 | 0.10 | 0.10 | 49 | 1008.9 |
| 20260502215529 | 46 | 244 | 8.0 | 20.0 | 0.00 | 0.10 | 0.10 | 49 | 1008.9 |
| 20260502215028 | 46 | 239 | 6.0 | 20.0 | 0.00 | 0.10 | 0.10 | 49 | 1008.9 |
| 20260502214559 | 46 | 242 | 9.0 | 20.0 | 0.00 | 0.10 | 0.10 | 47 | 1008.8 |
| 20260502214030 | 46 | 161 | 8.0 | 16.0 | 0.00 | 0.10 | 0.10 | 45 | 1008.8 |
| 20260502213529 | 47 | 218 | 8.0 | 16.0 | 0.00 | 0.10 | 0.10 | 43 | 1008.7 |
| 20260502213044 | 48 | 244 | 6.0 | 16.0 | 0.00 | 0.10 | 0.10 | 44 | 1008.5 |
| 20260502212530 | 48 | 238 | 6.0 | 18.0 | 0.00 | 0.10 | 0.10 | 45 | 1008.5 |
| 20260502212029 | 48 | 236 | 8.0 | 18.0 | 0.00 | 0.10 | 0.10 | 45 | 1008.5 |
| 20260502211547 | 48 | 252 | 5.0 | 17.0 | 0.00 | 0.10 | 0.10 | 48 | 1008.7 |
| 20260502211030 | 48 | 236 | 7.0 | 17.0 | 0.00 | 0.10 | 0.10 | 46 | 1008.6 |
| 20260502210530 | 48 | 205 | 8.0 | 14.0 | 0.00 | 0.10 | 0.10 | 49 | 1008.7 |
| 20260502210048 | 48 | 259 | 4.0 | 15.0 | 0.00 | 0.10 | 0.10 | 51 | 1008.6 |
| 20260502205530 | 48 | 254 | 6.0 | 15.0 | 0.00 | 0.10 | 0.10 | 50 | 1008.7 |
| 20260502205029 | 48 | 266 | 8.0 | 14.0 | 0.00 | 0.10 | 0.10 | 51 | 1008.8 |
| 20260502204541 | 48 | 264 | 5.0 | 16.0 | 0.00 | 0.10 | 0.10 | 54 | 1008.7 |
| 20260502204029 | 48 | 221 | 5.0 | 16.0 | 0.00 | 0.10 | 0.10 | 54 | 1008.6 |
| 20260502203530 | 48 | 243 | 8.0 | 16.0 | 0.00 | 0.10 | 0.10 | 54 | 1008.7 |
| 20260502203047 | 48 | 236 | 8.0 | 16.0 | 0.00 | 0.10 | 0.10 | 54 | 1008.7 |
| 20260502202532 | 48 | 266 | 9.0 | 16.0 | 0.00 | 0.10 | 0.10 | 52 | 1008.7 |
| 20260502202032 | 48 | 261 | 5.0 | 16.0 | 0.00 | 0.10 | 0.10 | 54 | 1008.7 |
| 20260502201546 | 47 | 242 | 7.0 | 13.0 | 0.00 | 0.10 | 0.10 | 55 | 1008.7 |
| 20260502201029 | 46 | 296 | 6.0 | 13.0 | 0.00 | 0.10 | 0.10 | 59 | 1008.7 |
| 20260502200529 | 46 | 162 | 2.0 | 12.0 | 0.00 | 0.10 | 0.10 | 60 | 1008.6 |
| 20260502200045 | 46 | 222 | 5.0 | 12.0 | 0.00 | 0.10 | 0.10 | 61 | 1008.6 |
| 20260502195533 | 45 | 203 | 6.0 | 14.0 | 0.00 | 0.10 | 0.10 | 60 | 1008.7 |
| 20260502195028 | 46 | 265 | 6.0 | 14.0 | 0.00 | 0.10 | 0.10 | 61 | 1008.7 |
| 20260502194543 | 46 | 275 | 6.0 | 13.0 | 0.00 | 0.10 | 0.10 | 62 | 1008.8 |
| 20260502194032 | 45 | 277 | 7.0 | 13.0 | 0.00 | 0.10 | 0.10 | 61 | 1008.7 |
| 20260502193535 | 46 | 240 | 6.0 | 13.0 | 0.00 | 0.10 | 0.10 | 62 | 1008.8 |
| 20260502193046 | 46 | 259 | 4.0 | 11.0 | 0.00 | 0.10 | 0.10 | 63 | 1009.0 |
| 20260502192533 | 46 | 269 | 2.0 | 11.0 | 0.00 | 0.10 | 0.10 | 66 | 1009.0 |
| 20260502192032 | 45 | 247 | 5.0 | 14.0 | 0.00 | 0.10 | 0.10 | 64 | 1009.1 |
| 20260502191541 | 44 | 274 | 6.0 | 14.0 | 0.00 | 0.10 | 0.10 | 68 | 1009.1 |
| 20260502191032 | 44 | 215 | 6.0 | 13.0 | 0.00 | 0.10 | 0.10 | 68 | 1009.2 |
| 20260502190532 | 45 | 279 | 5.0 | 11.0 | 0.00 | 0.10 | 0.10 | 68 | 1009.0 |
| 20260502190041 | 45 | 244 | 5.0 | 14.0 | 0.00 | 0.10 | 0.10 | 66 | 1009.1 |
| 20260502185531 | 46 | 34 | 7.0 | 14.0 | 0.00 | 0.10 | 0.10 | 64 | 1009.1 |
| 20260502185031 | 46 | 263 | 7.0 | 16.0 | 0.00 | 0.10 | 0.10 | 66 | 1009.0 |
| 20260502184545 | 47 | 157 | 4.0 | 16.0 | 0.00 | 0.10 | 0.10 | 68 | 1008.9 |
| 20260502184028 | 47 | 250 | 5.0 | 16.0 | 0.00 | 0.10 | 0.10 | 70 | 1009.0 |
| 20260502183531 | 45 | 135 | 6.0 | 16.0 | 0.00 | 0.10 | 0.10 | 71 | 1009.0 |
| 20260502183044 | 45 | 215 | 7.0 | 16.0 | 0.00 | 0.10 | 0.10 | 67 | 1009.0 |
| 20260502182535 | 45 | 261 | 5.0 | 16.0 | 0.00 | 0.10 | 0.10 | 69 | 1009.1 |
| 20260502182031 | 45 | 258 | 6.0 | 16.0 | 0.00 | 0.10 | 0.10 | 70 | 1009.3 |
| 20260502181546 | 45 | 234 | 5.0 | 12.0 | 0.00 | 0.10 | 0.10 | 72 | 1009.2 |
| 20260502181031 | 45 | 254 | 5.0 | 14.0 | 0.00 | 0.10 | 0.10 | 73 | 1009.2 |
| 20260502180531 | 45 | 279 | 6.0 | 14.0 | 0.00 | 0.10 | 0.10 | 71 | 1009.4 |
| 20260502164032 | 44 | 252 | 7.0 | 14.0 | 0.00 | 0.10 | 0.10 | 81 | 1009.1 |
| 20260502163533 | 44 | 239 | 8.0 | 14.0 | 0.00 | 0.10 | 0.10 | 83 | 1009.2 |
| 20260502163045 | 44 | 229 | 7.0 | 13.0 | 0.00 | 0.10 | 0.10 | 85 | 1009.3 |
| 20260502162534 | 43 | 207 | 8.0 | 12.0 | 0.00 | 0.10 | 0.10 | 86 | 1009.4 |
| 20260502162033 | 43 | 217 | 6.0 | 11.0 | 0.00 | 0.10 | 0.10 | 89 | 1009.4 |
| 20260502161547 | 42 | 263 | 6.0 | 11.0 | 0.00 | 0.10 | 0.10 | 88 | 1009.5 |
| 20260502161032 | 41 | 250 | 6.0 | 11.0 | 0.00 | 0.10 | 0.10 | 89 | 1009.6 |
| 20260502160532 | 41 | 204 | 3.0 | 8.0 | 0.00 | 0.10 | 0.10 | 91 | 1009.8 |
| 20260502152029 | 39 | 308 | 3.0 | 10.0 | 0.00 | 0.10 | 0.10 | 92 | 1009.8 |
| 20260502151547 | 39 | 232 | 3.0 | 10.0 | 0.00 | 0.10 | 0.10 | 92 | 1009.9 |
| 20260502151033 | 39 | 215 | 1.0 | 3.0 | 0.00 | 0.10 | 0.10 | 92 | 1009.9 |
| 20260502150531 | 39 | 355 | 1.0 | 5.0 | 0.00 | 0.10 | 0.10 | 93 | 1009.9 |
| 20260502130535 | 39 | 239 | 1.0 | 3.0 | 0.01 | 0.10 | 0.10 | 95 | 1009.7 |
| 20260502123531 | 39 | 202 | 1.0 | 4.0 | 0.03 | 0.10 | 0.10 | 96 | 1009.8 |
| 20260502123044 | 39 | 227 | 0.0 | 2.0 | 0.03 | 0.10 | 0.10 | 96 | 1009.9 |
| 20260502122531 | 39 | 227 | 0.0 | 4.0 | 0.03 | 0.10 | 0.10 | 96 | 1009.8 |
| 20260502122028 | 39 | 0 | 1.0 | 4.0 | 0.03 | 0.10 | 0.10 | 96 | 1009.7 |
| 20260502121544 | 39 | 0 | 1.0 | 4.0 | 0.03 | 0.10 | 0.10 | 95 | 1009.7 |
| 20260502121030 | 39 | 228 | 1.0 | 3.0 | 0.03 | 0.10 | 0.10 | 96 | 1009.6 |
| 20260502120531 | 39 | 0 | 1.0 | 2.0 | 0.02 | 0.09 | 0.09 | 96 | 1009.7 |
| 20260502115530 | 39 | 0 | 1.0 | 3.0 | 0.01 | 0.08 | 0.08 | 96 | 1009.5 |
| 20260502115031 | 39 | 0 | 0.0 | 4.0 | 0.00 | 0.07 | 0.07 | 96 | 1009.5 |
| 20260502114608 | 39 | 0 | 1.0 | 4.0 | 0.00 | 0.07 | 0.07 | 96 | 1009.5 |
| 20260502114032 | 39 | 0 | 0.0 | 3.0 | 0.00 | 0.07 | 0.07 | 96 | 1009.6 |
| 20260502113534 | 39 | 0 | 0.0 | 3.0 | 0.00 | 0.07 | 0.07 | 96 | 1009.6 |
| 20260502113045 | 38 | 100 | 1.0 | 3.0 | 0.00 | 0.07 | 0.07 | 95 | 1009.6 |
| 20260502112535 | 38 | 100 | 2.0 | 3.0 | 0.01 | 0.07 | 0.07 | 95 | 1009.5 |
| 20260502112031 | 38 | 100 | 1.0 | 3.0 | 0.01 | 0.07 | 0.07 | 95 | 1009.5 |
| 20260502111545 | 39 | 100 | 1.0 | 3.0 | 0.01 | 0.07 | 0.07 | 95 | 1009.5 |
| 20260502111044 | 38 | 0 | 0.0 | 3.0 | 0.01 | 0.07 | 0.07 | 95 | 1009.5 |
| 20260502110529 | 38 | 217 | 0.0 | 4.0 | 0.01 | 0.07 | 0.07 | 95 | 1009.4 |
| 20260502110046 | 38 | 0 | 1.0 | 4.0 | 0.01 | 0.07 | 0.07 | 95 | 1009.4 |
| 20260502105532 | 38 | 0 | 0.0 | 3.0 | 0.01 | 0.08 | 0.07 | 95 | 1009.4 |
| 20260502105030 | 38 | 0 | 0.0 | 3.0 | 0.01 | 0.08 | 0.07 | 95 | 1009.4 |
| 20260502104544 | 38 | 0 | 0.0 | 4.0 | 0.01 | 0.08 | 0.07 | 95 | 1009.4 |
| 20260502104030 | 38 | 182 | 0.0 | 4.0 | 0.01 | 0.08 | 0.07 | 95 | 1009.3 |
| 20260502103529 | 38 | 174 | 0.0 | 3.0 | 0.01 | 0.08 | 0.07 | 95 | 1009.4 |
| 20260502103041 | 38 | 153 | 0.0 | 4.0 | 0.00 | 0.07 | 0.06 | 95 | 1009.4 |
| 20260502102532 | 38 | 194 | 0.0 | 4.0 | 0.00 | 0.07 | 0.06 | 95 | 1009.4 |
| 20260502102030 | 38 | 194 | 1.0 | 4.0 | 0.00 | 0.07 | 0.06 | 95 | 1009.4 |
| 20260502101555 | 38 | 0 | 0.0 | 2.0 | 0.00 | 0.07 | 0.06 | 95 | 1009.2 |
| 20260502101030 | 38 | 0 | 0.0 | 3.0 | 0.00 | 0.07 | 0.06 | 95 | 1009.1 |
| 20260502100529 | 38 | 0 | 1.0 | 4.0 | 0.00 | 0.07 | 0.06 | 95 | 1008.9 |
| 20260502091029 | 38 | 0 | 0.0 | 3.0 | 0.01 | 0.07 | 0.06 | 94 | 1009.4 |
| 20260502090532 | 38 | 138 | 0.0 | 3.0 | 0.01 | 0.07 | 0.06 | 94 | 1009.5 |
| 20260502071028 | 38 | 0 | 0.0 | 0.0 | 0.01 | 0.02 | 0.01 | 93 | 1009.5 |
| 20260502070529 | 38 | 0 | 0.0 | 0.0 | 0.01 | 0.02 | 0.01 | 93 | 1009.5 |
| 20260502070048 | 38 | 0 | 0.0 | 0.0 | 0.01 | 0.02 | 0.01 | 93 | 1009.6 |
| 20260502065529 | 38 | 0 | 0.0 | 0.0 | 0.01 | 0.02 | 0.01 | 93 | 1009.6 |
| 20260502065030 | 38 | 0 | 0.0 | 0.0 | 0.00 | 0.01 | 0.00 | 93 | 1009.7 |
| 20260502064613 | 38 | 0 | 0.0 | 0.0 | 0.00 | 0.01 | 0.00 | 92 | 1009.6 |
| 20260502064029 | 38 | 0 | 0.0 | 0.0 | 0.00 | 0.01 | 0.00 | 92 | 1009.8 |
| 20260502063529 | 38 | 0 | 0.0 | 2.0 | 0.00 | 0.01 | 0.00 | 92 | 1009.7 |
| 20260502063054 | 38 | 0 | 0.0 | 3.0 | 0.00 | 0.01 | 0.00 | 92 | 1009.8 |
| 20260502062529 | 38 | 0 | 0.0 | 4.0 | 0.00 | 0.01 | 0.00 | 91 | 1009.8 |
| 20260502062030 | 38 | 86 | 1.0 | 4.0 | 0.00 | 0.01 | 0.00 | 91 | 1009.8 |
| 20260502061543 | 38 | 102 | 1.0 | 4.0 | 0.00 | 0.01 | 0.00 | 91 | 1009.8 |
| 20260502061029 | 38 | 110 | 1.0 | 4.0 | 0.00 | 0.01 | 0.00 | 91 | 1010.0 |
| 20260502060529 | 38 | 74 | 2.0 | 4.0 | 0.00 | 0.01 | 0.00 | 90 | 1010.0 |
| 20260502060045 | 38 | 115 | 1.0 | 3.0 | 0.00 | 0.01 | 0.00 | 90 | 1010.1 |
| 20260502055532 | 38 | 0 | 0.0 | 6.0 | 0.00 | 0.01 | 0.00 | 90 | 1010.1 |
| 20260502055029 | 38 | 116 | 1.0 | 6.0 | 0.00 | 0.01 | 0.00 | 89 | 1010.1 |
| 20260502054538 | 38 | 122 | 1.0 | 4.0 | 0.00 | 0.01 | 0.00 | 89 | 1010.2 |
| 20260502054028 | 38 | 122 | 1.0 | 4.0 | 0.00 | 0.01 | 0.00 | 88 | 1010.1 |
| 20260502053529 | 38 | 205 | 1.0 | 3.0 | 0.00 | 0.01 | 0.00 | 88 | 1010.2 |
| 20260502053055 | 38 | 107 | 1.0 | 3.0 | 0.00 | 0.01 | 0.00 | 88 | 1010.1 |
| 20260502052533 | 39 | 109 | 0.0 | 6.0 | 0.00 | 0.01 | 0.00 | 87 | 1010.3 |
| 20260502052030 | 39 | 221 | 1.0 | 6.0 | 0.00 | 0.01 | 0.00 | 87 | 1010.7 |
| 20260502051545 | 39 | 277 | 2.0 | 4.0 | 0.00 | 0.01 | 0.00 | 86 | 1010.6 |
| 20260502051032 | 39 | 258 | 2.0 | 4.0 | 0.00 | 0.01 | 0.00 | 85 | 1010.6 |
| 20260502050529 | 39 | 225 | 2.0 | 9.0 | 0.00 | 0.01 | 0.00 | 84 | 1010.6 |
| 20260502050047 | 39 | 0 | 1.0 | 9.0 | 0.00 | 0.01 | 0.00 | 83 | 1010.5 |
| 20260502045529 | 40 | 240 | 2.0 | 9.0 | 0.00 | 0.01 | 0.00 | 82 | 1010.4 |
| 20260502045028 | 40 | 206 | 3.0 | 6.0 | 0.00 | 0.01 | 0.00 | 81 | 1010.4 |
| 20260502044542 | 40 | 267 | 3.0 | 8.0 | 0.00 | 0.01 | 0.00 | 80 | 1010.4 |
| 20260502044029 | 40 | 266 | 2.0 | 8.0 | 0.00 | 0.01 | 0.00 | 80 | 1010.5 |
| 20260502043531 | 40 | 277 | 3.0 | 8.0 | 0.00 | 0.01 | 0.00 | 79 | 1010.5 |
| 20260502043117 | 40 | 259 | 2.0 | 7.0 | 0.00 | 0.01 | 0.00 | 78 | 1010.5 |
| 20260502042529 | 41 | 232 | 1.0 | 7.0 | 0.00 | 0.01 | 0.00 | 78 | 1010.4 |
| 20260502042029 | 41 | 227 | 2.0 | 7.0 | 0.00 | 0.01 | 0.00 | 77 | 1010.4 |
| 20260502041556 | 41 | 259 | 0.0 | 4.0 | 0.00 | 0.01 | 0.00 | 76 | 1010.6 |
| 20260502041030 | 41 | 0 | 1.0 | 6.0 | 0.00 | 0.01 | 0.00 | 75 | 1010.7 |
| 20260502040531 | 41 | 262 | 1.0 | 9.0 | 0.00 | 0.01 | 0.00 | 75 | 1010.5 |
| 20260502040045 | 41 | 236 | 2.0 | 11.0 | 0.00 | 0.01 | 0.00 | 75 | 1010.5 |
| 20260502035528 | 41 | 246 | 4.0 | 12.0 | 0.00 | 0.01 | 0.01 | 73 | 1010.5 |
| 20260502035032 | 42 | 269 | 5.0 | 12.0 | 0.00 | 0.01 | 0.01 | 72 | 1010.5 |
| 20260502034544 | 42 | 231 | 3.0 | 8.0 | 0.00 | 0.01 | 0.01 | 70 | 1010.4 |
| 20260502034030 | 42 | 246 | 3.0 | 8.0 | 0.00 | 0.01 | 0.01 | 69 | 1010.4 |
| 20260502033531 | 42 | 229 | 3.0 | 8.0 | 0.00 | 0.01 | 0.01 | 68 | 1010.4 |
| 20260502033047 | 42 | 0 | 0.0 | 3.0 | 0.00 | 0.01 | 0.01 | 66 | 1010.3 |
| 20260502032529 | 42 | 0 | 0.0 | 0.0 | 0.00 | 0.01 | 0.01 | 66 | 1010.2 |
| 20260502032029 | 42 | 0 | 0.0 | 0.0 | 0.00 | 0.01 | 0.01 | 66 | 1010.2 |
| 20260502031545 | 42 | 0 | 0.0 | 0.0 | 0.00 | 0.01 | 0.01 | 65 | 1010.3 |
| 20260502031029 | 42 | 0 | 0.0 | 2.0 | 0.00 | 0.01 | 0.01 | 65 | 1010.3 |
| 20260502030529 | 42 | 0 | 0.0 | 5.0 | 0.00 | 0.01 | 0.01 | 65 | 1010.2 |
| 20260502030048 | 42 | 254 | 0.0 | 6.0 | 0.00 | 0.01 | 0.01 | 65 | 1010.2 |
| 20260502025528 | 42 | 254 | 0.0 | 6.0 | 0.00 | 0.01 | 0.01 | 65 | 1010.1 |
| 20260502025030 | 42 | 0 | 0.0 | 2.0 | 0.00 | 0.01 | 0.01 | 65 | 1010.1 |
| 20260502024542 | 42 | 0 | 0.0 | 2.0 | 0.00 | 0.01 | 0.01 | 65 | 1010.2 |
| 20260502024029 | 42 | 218 | 0.0 | 0.0 | 0.00 | 0.01 | 0.01 | 65 | 1010.3 |
| 20260502023529 | 42 | 0 | 0.0 | 1.0 | 0.00 | 0.01 | 0.01 | 64 | 1010.4 |
| 20260502023040 | 42 | 0 | 0.0 | 3.0 | 0.00 | 0.01 | 0.01 | 64 | 1010.4 |
| 20260502022528 | 43 | 218 | 0.0 | 5.0 | 0.00 | 0.01 | 0.01 | 64 | 1010.4 |
| 20260502022032 | 43 | 218 | 1.0 | 7.0 | 0.00 | 0.01 | 0.01 | 64 | 1010.3 |
| 20260502021542 | 43 | 256 | 2.0 | 8.0 | 0.00 | 0.01 | 0.01 | 64 | 1010.3 |
| 20260502021030 | 43 | 252 | 2.0 | 11.0 | 0.00 | 0.01 | 0.01 | 64 | 1010.2 |
| 20260502020533 | 43 | 261 | 3.0 | 11.0 | 0.00 | 0.01 | 0.01 | 63 | 1010.2 |
| 20260502020040 | 43 | 263 | 3.0 | 8.0 | 0.00 | 0.01 | 0.01 | 62 | 1010.3 |
| 20260502015529 | 43 | 230 | 2.0 | 8.0 | 0.00 | 0.01 | 0.01 | 62 | 1010.3 |
| 20260502015029 | 44 | 232 | 2.0 | 8.0 | 0.00 | 0.01 | 0.01 | 61 | 1010.2 |
| 20260502014610 | 44 | 212 | 3.0 | 8.0 | 0.00 | 0.01 | 0.01 | 61 | 1010.4 |
| 20260502014028 | 44 | 241 | 3.0 | 9.0 | 0.00 | 0.01 | 0.01 | 60 | 1010.4 |
| 20260502013528 | 44 | 255 | 3.0 | 10.0 | 0.00 | 0.01 | 0.01 | 60 | 1010.4 |
| 20260502013050 | 44 | 250 | 4.0 | 10.0 | 0.00 | 0.01 | 0.01 | 60 | 1010.5 |
| 20260502012529 | 44 | 252 | 3.0 | 12.0 | 0.00 | 0.01 | 0.01 | 60 | 1010.5 |
| 20260502012031 | 44 | 245 | 3.0 | 12.0 | 0.00 | 0.01 | 0.01 | 59 | 1010.4 |
| 20260502011545 | 44 | 260 | 4.0 | 12.0 | 0.00 | 0.01 | 0.01 | 58 | 1010.4 |
| 20260502011028 | 44 | 254 | 5.0 | 12.0 | 0.00 | 0.01 | 0.01 | 57 | 1010.4 |
| 20260502010529 | 44 | 242 | 4.0 | 11.0 | 0.00 | 0.01 | 0.01 | 57 | 1010.5 |
| 20260502010044 | 44 | 258 | 4.0 | 11.0 | 0.00 | 0.01 | 0.01 | 57 | 1010.4 |
| 20260502005529 | 44 | 207 | 4.0 | 11.0 | 0.00 | 0.01 | 0.01 | 56 | 1010.4 |
| 20260502005031 | 44 | 251 | 3.0 | 10.0 | 0.00 | 0.01 | 0.01 | 55 | 1010.3 |
| 20260502004544 | 45 | 225 | 3.0 | 10.0 | 0.00 | 0.01 | 0.01 | 55 | 1010.3 |
| 20260502004028 | 45 | 249 | 4.0 | 10.0 | 0.00 | 0.01 | 0.01 | 55 | 1010.2 |
| 20260502003528 | 45 | 240 | 3.0 | 11.0 | 0.00 | 0.01 | 0.01 | 55 | 1010.2 |
| 20260502003046 | 45 | 252 | 4.0 | 11.0 | 0.00 | 0.01 | 0.01 | 54 | 1010.1 |
| 20260502002528 | 45 | 238 | 4.0 | 10.0 | 0.00 | 0.01 | 0.01 | 54 | 1010.0 |
| 20260502002029 | 45 | 220 | 3.0 | 10.0 | 0.00 | 0.01 | 0.01 | 53 | 1010.0 |
| 20260502001544 | 45 | 291 | 4.0 | 10.0 | 0.00 | 0.01 | 0.01 | 52 | 1009.9 |
| 20260502001029 | 45 | 256 | 4.0 | 12.0 | 0.00 | 0.01 | 0.01 | 52 | 1009.7 |
| 20260502000531 | 45 | 244 | 4.0 | 12.0 | 0.00 | 0.01 | 0.01 | 52 | 1009.7 |
| 20260502000043 | 45 | 260 | 4.0 | 11.0 | 0.00 | 0.01 | 0.01 | 51 | 1009.5 |
| 20260501235528 | 45 | 239 | 4.0 | 15.0 | 0.00 | 0.01 | 0.01 | 51 | 1009.5 |
| 20260501235029 | 45 | 245 | 3.0 | 15.0 | 0.00 | 0.01 | 0.01 | 51 | 1009.5 |
| 20260501234545 | 46 | 261 | 4.0 | 10.0 | 0.00 | 0.01 | 0.01 | 51 | 1009.4 |
| 20260501234028 | 46 | 244 | 4.0 | 11.0 | 0.00 | 0.01 | 0.01 | 50 | 1009.4 |
| 20260501233531 | 46 | 244 | 5.0 | 11.0 | 0.00 | 0.01 | 0.01 | 49 | 1009.4 |
| 20260501233043 | 46 | 242 | 3.0 | 11.0 | 0.00 | 0.01 | 0.01 | 48 | 1009.4 |
| 20260501232528 | 46 | 244 | 4.0 | 9.0 | 0.00 | 0.01 | 0.01 | 48 | 1009.3 |
| 20260501232035 | 47 | 231 | 3.0 | 8.0 | 0.00 | 0.01 | 0.01 | 47 | 1009.3 |
| 20260501231538 | 47 | 259 | 4.0 | 9.0 | 0.00 | 0.01 | 0.01 | 47 | 1009.1 |
| 20260501231029 | 47 | 250 | 3.0 | 10.0 | 0.00 | 0.01 | 0.01 | 46 | 1009.2 |
| 20260501230529 | 48 | 271 | 4.0 | 12.0 | 0.00 | 0.01 | 0.01 | 46 | 1009.1 |
| 20260501230046 | 48 | 236 | 3.0 | 13.0 | 0.00 | 0.01 | 0.01 | 44 | 1009.1 |
| 20260501225529 | 48 | 166 | 5.0 | 13.0 | 0.00 | 0.01 | 0.01 | 44 | 1009.0 |
| 20260501225028 | 49 | 227 | 5.0 | 11.0 | 0.00 | 0.01 | 0.01 | 45 | 1009.0 |
| 20260501224544 | 49 | 242 | 5.0 | 11.0 | 0.00 | 0.01 | 0.01 | 44 | 1008.9 |
| 20260501224028 | 50 | 250 | 4.0 | 13.0 | 0.00 | 0.01 | 0.01 | 43 | 1008.8 |
| 20260501223612 | 50 | 240 | 3.0 | 13.0 | 0.00 | 0.01 | 0.01 | 44 | 1008.9 |
| 20260501223046 | 50 | 225 | 5.0 | 13.0 | 0.00 | 0.01 | 0.01 | 43 | 1008.9 |
| 20260501222534 | 50 | 281 | 3.0 | 15.0 | 0.00 | 0.01 | 0.01 | 44 | 1008.7 |
| 20260501222032 | 50 | 225 | 6.0 | 15.0 | 0.00 | 0.01 | 0.01 | 43 | 1008.9 |
| 20260501221545 | 50 | 248 | 8.0 | 18.0 | 0.00 | 0.01 | 0.01 | 43 | 1008.8 |
| 20260501221034 | 50 | 224 | 5.0 | 18.0 | 0.00 | 0.01 | 0.01 | 44 | 1008.7 |
| 20260501220535 | 50 | 211 | 5.0 | 16.0 | 0.00 | 0.01 | 0.01 | 45 | 1008.8 |